| time (UTC) | temp F | wind direction | speed MPH | gust MPH | rain 1hr in | rain 24hr in | rain mn in | humidity % | barometer mb |
| 20260902163028 | 67 | 254 | 3.0 | 11.0 | 0.00 | 0.01 | 0.01 | 41 | 1004.5 |
| 20260902160020 | 68 | 266 | 5.0 | 13.0 | 0.00 | 0.01 | 0.01 | 40 | 1004.6 |
| 20260902153108 | 69 | 283 | 5.0 | 17.0 | 0.00 | 0.01 | 0.01 | 40 | 1004.7 |
| 20260902150059 | 69 | 266 | 6.0 | 17.0 | 0.00 | 0.01 | 0.01 | 41 | 1004.7 |
| 20260902143049 | 69 | 284 | 5.0 | 13.0 | 0.00 | 0.01 | 0.01 | 42 | 1004.7 |
| 20260902140040 | 69 | 265 | 7.0 | 15.0 | 0.00 | 0.01 | 0.01 | 45 | 1004.7 |
| 20260902133030 | 69 | 272 | 5.0 | 12.0 | 0.00 | 0.01 | 0.01 | 49 | 1004.6 |
| 20260902130020 | 68 | 294 | 6.0 | 20.0 | 0.00 | 0.01 | 0.01 | 53 | 1004.8 |
| 20260902123151 | 66 | 293 | 4.0 | 11.0 | 0.01 | 0.02 | 0.01 | 66 | 1005.0 |
| 20260902113052 | 69 | 248 | 3.0 | 9.0 | 0.00 | 0.16 | 0.00 | 59 | 1005.1 |
| 20260902110040 | 68 | 209 | 3.0 | 9.0 | 0.00 | 0.16 | 0.00 | 63 | 1005.5 |
| 20260902103030 | 67 | 220 | 5.0 | 13.0 | 0.00 | 0.16 | 0.00 | 64 | 1005.7 |
| 20260902100020 | 66 | 220 | 4.0 | 12.0 | 0.00 | 0.16 | 0.00 | 67 | 1005.8 |
| 20260902093110 | 67 | 208 | 4.0 | 9.0 | 0.00 | 0.16 | 0.00 | 66 | 1005.8 |
| 20260902090100 | 66 | 236 | 3.0 | 7.0 | 0.00 | 0.16 | 0.00 | 69 | 1005.8 |
| 20260902083051 | 65 | 233 | 3.0 | 8.0 | 0.00 | 0.16 | 0.00 | 69 | 1005.9 |
| 20260902080040 | 63 | 249 | 4.0 | 14.0 | 0.00 | 0.16 | 0.00 | 72 | 1005.9 |
| 20260902073032 | 63 | 258 | 3.0 | 7.0 | 0.00 | 0.16 | 0.00 | 71 | 1005.8 |
| 20260902070021 | 60 | 225 | 2.0 | 7.0 | 0.00 | 0.16 | 0.00 | 79 | 1005.8 |
| 20260902063152 | 56 | 204 | 1.0 | 6.0 | 0.00 | 0.16 | 0.00 | 84 | 1005.8 |
| 20260902053052 | 53 | 237 | 1.0 | 8.0 | 0.00 | 0.16 | 0.00 | 93 | 1005.8 |
| 20260902050042 | 52 | 228 | 0.0 | 3.0 | 0.00 | 0.16 | 0.00 | 93 | 1005.7 |
| 20260902043033 | 52 | 265 | 0.0 | 2.0 | 0.00 | 0.16 | 0.00 | 92 | 1005.6 |
| 20260902040022 | 53 | 239 | 0.0 | 3.0 | 0.00 | 0.16 | 0.00 | 92 | 1005.6 |
| 20260902033114 | 54 | 252 | 1.0 | 4.0 | 0.00 | 0.16 | 0.00 | 92 | 1005.7 |
| 20260902030144 | 54 | 226 | 1.0 | 6.0 | 0.00 | 0.16 | 0.00 | 92 | 1005.7 |
| 20260902023054 | 54 | 190 | 0.0 | 2.0 | 0.00 | 0.16 | 0.00 | 88 | 1005.6 |
| 20260902020045 | 55 | 219 | 1.0 | 6.0 | 0.00 | 0.16 | 0.00 | 88 | 1005.7 |
| 20260902013035 | 55 | 207 | 1.0 | 5.0 | 0.00 | 0.16 | 0.00 | 89 | 1005.7 |
| 20260902010024 | 54 | 218 | 0.0 | 3.0 | 0.00 | 0.16 | 0.00 | 87 | 1005.8 |
| 20260902003115 | 55 | 204 | 0.0 | 2.0 | 0.00 | 0.16 | 0.00 | 84 | 1005.7 |
| 20260902000125 | 56 | 223 | 1.0 | 6.0 | 0.00 | 0.16 | 0.00 | 84 | 1005.7 |
| 20260901233055 | 57 | 215 | 1.0 | 3.0 | 0.00 | 0.16 | 0.00 | 83 | 1005.7 |
| 20260901230105 | 58 | 216 | 1.0 | 4.0 | 0.00 | 0.16 | 0.00 | 83 | 1005.6 |
| 20260901223056 | 58 | 208 | 1.0 | 5.0 | 0.00 | 0.16 | 0.00 | 82 | 1005.5 |
| 20260901220046 | 58 | 218 | 1.0 | 4.0 | 0.00 | 0.16 | 0.00 | 81 | 1005.5 |
| 20260901213115 | 59 | 179 | 1.0 | 3.0 | 0.00 | 0.16 | 0.16 | 79 | 1005.4 |
| 20260901210106 | 60 | 232 | 0.0 | 2.0 | 0.00 | 0.16 | 0.16 | 77 | 1005.3 |
| 20260901203116 | 61 | 217 | 0.0 | 2.0 | 0.00 | 0.16 | 0.16 | 75 | 1005.2 |
| 20260901200106 | 62 | 184 | 1.0 | 3.0 | 0.00 | 0.16 | 0.16 | 73 | 1005.1 |
| 20260901193037 | 63 | 254 | 0.0 | 3.0 | 0.00 | 0.16 | 0.16 | 69 | 1005.1 |
| 20260901190026 | 64 | 271 | 1.0 | 5.0 | 0.00 | 0.16 | 0.16 | 68 | 1004.9 |
| 20260901183018 | 64 | 251 | 2.0 | 6.0 | 0.00 | 0.16 | 0.16 | 67 | 1004.7 |
| 20260901180107 | 65 | 211 | 1.0 | 3.0 | 0.00 | 0.16 | 0.16 | 66 | 1004.3 |
| 20260901173057 | 67 | 250 | 2.0 | 5.0 | 0.00 | 0.16 | 0.16 | 64 | 1004.2 |
| 20260901170047 | 68 | 264 | 1.0 | 6.0 | 0.00 | 0.16 | 0.16 | 63 | 1004.1 |